[[{"header":{"parameterUnit":"m.s-1","parameterCategory":1,"la1":30.2991,"la2":30.254,"lo1":-89.0895,"lo2":-89.0444,"dy":0.0017,"dx":0.0017,"nx":28,"ny":28,"refTime":"2024-07-27T03:00:00:Z","depth":0,"parameterNumber":2,"parameterNumberName":"U-component_of_WINDS"},"data":[0,0,0,0,0,0,0,0,0,0,0,0,0,0,0,0,0,0,0,0,0,0,0,0,0,0,0,0,0,0,0,0,0,0,0,0,0,0,0,0,0,0,0,0,0,0,0,0,0,0,0,0,0,0,0,0,0,0,-0.0052,-0.0052,0,-0.0068,-0.0069,-0.0069,-0.0093,-0.0094,-0.0094,-0.0094,-0.0112,-0.0112,-0.0112,0,0,0,0,0,0,0,0,0,0,0,0,0,-0.0041,-0.0041,-0.0052,-0.0052,-0.0052,-0.0068,-0.0069,-0.0069,-0.0093,-0.0094,-0.0094,-0.0095,-0.0112,-0.0112,-0.0112,0,0,0,0,0,0,0,0,0,0,0,0,0,-0.0051,-0.0041,-0.0052,-0.0066,-0.0068,-0.0068,-0.0069,-0.0069,-0.0093,-0.0094,-0.0094,-0.0095,-0.0112,-0.0112,-0.0112,-0.01,0,0,-0.0112,-0.0112,0,0,0,0,0,0,0,0,-0.005,-0.0051,-0.0064,-0.0065,-0.0067,-0.0079,-0.0071,-0.0079,-0.0093,-0.0083,-0.0094,-0.0095,-0.01,-0.0101,-0.0103,-0.01,-0.0101,-0.0112,-0.0112,-0.0112,-0.0112,0,0,0,0,0,0,0,-0.0049,-0.005,-0.0058,-0.0064,-0.0066,-0.0072,-0.0074,-0.0073,-0.0088,-0.0084,-0.0086,-0.0088,-0.0101,-0.0103,-0.0104,-0.0101,-0.0112,-0.0112,-0.0112,-0.0112,-0.009,-0.0089,0,0,0,0,0,0,-0.0047,-0.005,-0.0058,-0.0059,-0.006,-0.0072,-0.0074,-0.0075,-0.0088,-0.0091,-0.0087,-0.0089,-0.0103,-0.0104,-0.0104,-0.0091,-0.0112,-0.0112,-0.0112,-0.009,-0.0089,-0.0089,0,0,0,0,0,0,-0.0046,-0.0047,-0.0057,-0.0055,-0.0057,-0.0071,-0.0072,-0.0075,-0.0076,-0.009,-0.0093,-0.0086,-0.0103,-0.0104,-0.0101,-0.0092,-0.0112,-0.0112,-0.0091,-0.009,-0.0089,-0.0065,0,0,0,0,0,0,-0.0046,-0.0047,-0.0042,-0.0054,-0.0057,-0.0053,-0.0071,-0.0075,-0.0077,-0.0079,-0.009,-0.0093,-0.0104,-0.01,-0.0101,-0.0093,-0.0112,-0.0092,-0.0091,-0.0089,-0.0066,-0.0063,-0.006,0,0,0,0,0,-0.0045,-0.0035,-0.0042,-0.0043,-0.0051,-0.0052,-0.0054,-0.0067,-0.0076,-0.0071,-0.008,-0.0092,-0.0093,-0.01,-0.01,-0.0092,-0.0092,-0.0091,-0.009,-0.0068,-0.0064,-0.006,0,0,0,0,0,0,-0.0021,-0.0037,-0.0045,-0.0038,-0.0044,-0.0057,-0.0051,-0.0062,-0.0065,-0.0067,-0.0083,-0.0086,-0.008,-0.0086,-0.0093,-0.0081,-0.0095,-0.0093,-0.0078,-0.0074,-0.0071,-0.007,-0.0113,0,0,0,0,0,-0.0015,-0.0015,-0.0028,-0.0021,-0.0023,-0.0037,-0.0038,-0.0047,-0.0054,-0.0057,-0.0065,-0.0071,-0.0073,-0.0074,-0.0076,-0.0067,-0.007,-0.0062,-0.0059,-0.0056,-0.0055,-0.0051,-0.0048,-0.0084,-0.0084,-0.0084,0,0,-0.0002,-0.0011,-0.001,-0.0016,-0.0022,-0.0021,-0.0039,-0.0037,-0.0037,-0.0056,-0.0054,-0.006,-0.0068,-0.0062,-0.0059,-0.0066,-0.0046,-0.0054,-0.0052,-0.0052,-0.0049,-0.0046,-0.0043,-0.0083,-0.0083,-0.0083,0,0,0.0021,0.0015,0.002,0.0015,0.0007,-0.0002,-0.0001,-0.0012,-0.0017,-0.0015,-0.0029,-0.0029,-0.0032,-0.0037,-0.004,-0.0018,-0.0029,-0.0018,-0.0003,0.0001,0.0004,0.0007,0.0014,0.0017,-0.0017,-0.0017,-0.0017,0,0.0038,0.0038,0.0024,0.0027,0.0024,0.0007,0.0012,0.0008,-0.0001,-0.0002,-0.001,-0.0014,-0.002,-0.0015,-0.001,-0.0012,-0.0011,-0.0018,0.0005,0.0007,0.0009,0.0016,0.0019,-0.0016,-0.0016,-0.0016,-0.0016,0,0.0059,0.0059,0.0065,0.0057,0.0055,0.0059,0.0046,0.0045,0.0036,0.0028,0.0031,0.0023,0.0018,0.0019,0.001,0.0022,0.0018,0.0008,-0.0006,0.0014,0.002,0.0023,-0.0014,-0.0014,-0.0015,-0.0015,0,0,0.0096,0.0081,0.0083,0.0079,0.0069,0.0069,0.0072,0.0068,0.0068,0.0063,0.0065,0.0063,0.0054,0.005,0.0041,0.0044,0.0062,0.0034,0.0033,0.0039,0.0074,0.0081,0.0085,0.0054,0.0055,0.0055,0.0075,0,0.0117,0.0121,0.0109,0.0116,0.0116,0.01,0.0103,0.0097,0.0089,0.0088,0.008,0.0079,0.0067,0.0065,0.0068,0.0059,0.0068,0.0057,0.0056,0.0056,0.0058,0.0088,0.0095,0.0114,0.0077,0.0077,0.0078,0,0.0142,0.0138,0.0145,0.0134,0.0134,0.0136,0.0132,0.0131,0.0124,0.0118,0.0115,0.0103,0.0105,0.0093,0.0095,0.0088,0.0087,0.0082,0.0083,0.0082,0.0068,0.0087,0.012,0.0123,0.0081,0.0081,0.0081,0,0.0168,0.0164,0.0168,0.0165,0.0153,0.0155,0.015,0.0142,0.0141,0.0136,0.0135,0.0131,0.0129,0.0126,0.0114,0.0106,0.0118,0.0104,0.0113,0.0113,0.0116,0.0116,0.0148,0.0116,0.0116,0.0116,0.0116,0,0.0192,0.0197,0.018,0.0182,0.0187,0.0173,0.0179,0.0172,0.0165,0.0166,0.0152,0.0153,0.0137,0.0136,0.0127,0.013,0.0129,0.0125,0.0122,0.0125,0.0126,0.0124,0.0122,0.0116,0.0116,0.0116,0.0116,0,0.0221,0.021,0.0213,0.0201,0.0199,0.0203,0.0193,0.0194,0.0186,0.0187,0.0186,0.0173,0.0172,0.016,0.0155,0.0149,0.0155,0.015,0.0158,0.0156,0.0165,0.0164,0.0197,0.02,0.0166,0.0167,0.0167,0,0.0237,0.0241,0.0229,0.0229,0.0224,0.0224,0.0222,0.0208,0.0207,0.0199,0.0202,0.0199,0.0196,0.0194,0.0184,0.018,0.0175,0.0187,0.0174,0.0178,0.0174,0.0174,0.0174,0.0189,0.019,0.019,0.019,0,0.0266,0.026,0.0258,0.0254,0.0253,0.0249,0.0244,0.0245,0.023,0.0229,0.0227,0.0225,0.022,0.0217,0.0212,0.0207,0.0196,0.0194,0.0196,0.0199,0.0203,0.0201,0.0164,0.0193,0.0193,0.0193,0.0193,0.0193,0.0289,0.0291,0.0283,0.0282,0.0277,0.0273,0.0274,0.0266,0.0264,0.0259,0.0251,0.0251,0.0243,0.0235,0.0231,0.023,0.0223,0.0226,0.0226,0.0227,0.0229,0.0204,0.0229,0.0229,0.0229,0.0228,0.0228,0,0.0317,0.0311,0.0309,0.0303,0.0302,0.0292,0.0287,0.0286,0.0286,0.028,0.0277,0.0275,0.0272,0.0262,0.0258,0.0259,0.0254,0.0259,0.0258,0.0257,0.0235,0.0234,0.0263,0.0263,0.0263,0.0263,0.0263,0.0263,0.0331,0.0334,0.0327,0.0328,0.0322,0.0322,0.0319,0.0315,0.0311,0.0309,0.0306,0.03,0.0293,0.0288,0.0285,0.0282,0.0281,0.0287,0.0283,0.0262,0.0259,0.0256,0.0254,0.0287,0.0287,0.0305,0.0305,0.0305]},{"header":{"parameterUnit":"m.s-1","parameterCategory":1,"la1":30.2991,"la2":30.254,"lo1":-89.0895,"lo2":-89.0444,"dy":0.0017,"dx":0.0017,"nx":28,"ny":28,"refTime":"2024-07-27T03:00:00:Z","depth":0,"parameterNumber":3,"parameterNumberName":"V-component_of_WINDS"},"data":[0,0,0,0,0,0,0,0,0,0,0,0,0,0,0,0,0,0,0,0,0,0,0,0,0,0,0,0,0,0,0,0,0,0,0,0,0,0,0,0,0,0,0,0,0,0,0,0,0,0,0,0,0,0,0,0,0,0,3.1158,3.1158,0,3.1236,3.1237,3.1238,3.127,3.127,3.127,3.127,3.1346,3.1348,3.135,0,0,0,0,0,0,0,0,0,0,0,0,0,3.1031,3.1033,3.1157,3.1158,3.1159,3.1236,3.1237,3.1238,3.127,3.127,3.127,3.127,3.1345,3.1347,3.135,0,0,0,0,0,0,0,0,0,0,0,0,0,3.1095,3.1034,3.1157,3.1185,3.1188,3.1236,3.1237,3.1238,3.127,3.127,3.127,3.127,3.1344,3.1347,3.135,3.1375,0,0,3.136,3.1362,0,0,0,0,0,0,0,0,3.1092,3.11,3.118,3.1183,3.1187,3.1243,3.122,3.1284,3.1271,3.1239,3.127,3.127,3.1311,3.1317,3.1332,3.1379,3.1382,3.1361,3.1363,3.1364,3.1365,0,0,0,0,0,0,0,3.1087,3.1097,3.1188,3.1181,3.1185,3.1192,3.1201,3.1233,3.1275,3.1242,3.1244,3.1253,3.1313,3.1329,3.1334,3.1383,3.1361,3.1363,3.1365,3.1367,3.1454,3.1454,0,0,0,0,0,0,3.1079,3.1093,3.1186,3.1191,3.1138,3.1194,3.1204,3.1225,3.1275,3.1283,3.1254,3.1255,3.1324,3.1331,3.1337,3.137,3.1364,3.1367,3.1369,3.1453,3.1454,3.1454,0,0,0,0,0,0,3.1076,3.1087,3.1183,3.1143,3.1155,3.1197,3.122,3.1227,3.1243,3.1284,3.1292,3.1262,3.1324,3.1333,3.1366,3.1373,3.1368,3.1371,3.1453,3.1453,3.1454,3.1435,0,0,0,0,0,0,3.1072,3.1086,3.1096,3.1143,3.1157,3.1211,3.1221,3.1229,3.1249,3.1251,3.1294,3.1301,3.1324,3.1361,3.1369,3.1377,3.1374,3.1452,3.1453,3.1454,3.1435,3.1435,3.1434,0,0,0,0,0,3.1068,3.1086,3.1097,3.1108,3.1172,3.1212,3.122,3.1248,3.125,3.126,3.1287,3.13,3.1371,3.1364,3.1374,3.1383,3.1452,3.1453,3.1454,3.1435,3.1435,3.1434,0,0,0,0,0,0,3.1038,3.1093,3.1105,3.114,3.1171,3.1217,3.1231,3.1246,3.1276,3.1277,3.1308,3.1318,3.1348,3.1369,3.136,3.141,3.1412,3.1415,3.1395,3.1395,3.1395,3.1389,3.1377,0,0,0,0,0,3.1036,3.1065,3.1111,3.1137,3.1152,3.1189,3.1207,3.1226,3.1259,3.1272,3.1301,3.1331,3.136,3.1379,3.1408,3.1438,3.1448,3.1449,3.1449,3.1448,3.145,3.1468,3.1469,3.1457,3.1457,3.1457,0,0,3.1031,3.1065,3.1081,3.1132,3.1158,3.1187,3.12,3.1229,3.125,3.1276,3.131,3.1332,3.1368,3.14,3.1415,3.1418,3.1456,3.145,3.1449,3.1451,3.1469,3.147,3.1471,3.1457,3.1457,3.1457,0,0,3.1036,3.1065,3.1091,3.1117,3.1158,3.1182,3.1188,3.1233,3.1249,3.1284,3.1304,3.1329,3.1378,3.1403,3.1423,3.1439,3.1452,3.1447,3.1445,3.1463,3.1464,3.1465,3.147,3.1472,3.1449,3.1449,3.1449,0,3.1025,3.107,3.1101,3.113,3.1152,3.1179,3.1204,3.1228,3.1275,3.1289,3.1291,3.1355,3.1381,3.142,3.1424,3.1438,3.1446,3.1442,3.1461,3.1462,3.1464,3.147,3.1472,3.1448,3.1448,3.1448,3.1449,0,3.1054,3.1084,3.11,3.1147,3.1171,3.1197,3.1232,3.1251,3.1268,3.1292,3.1327,3.1359,3.1396,3.1406,3.1422,3.1447,3.1448,3.1455,3.1459,3.1464,3.147,3.1472,3.1447,3.1447,3.1448,3.1448,0,0,3.1042,3.1108,3.1113,3.1135,3.1182,3.1206,3.1233,3.1271,3.1287,3.1319,3.1343,3.1385,3.1392,3.1414,3.1433,3.1448,3.1459,3.1454,3.1455,3.1454,3.1489,3.1483,3.1485,3.1469,3.1469,3.147,3.1486,0,3.1054,3.1107,3.1137,3.1177,3.1205,3.1232,3.1256,3.1287,3.131,3.1336,3.1361,3.1391,3.1399,3.1412,3.1428,3.1455,3.1467,3.1454,3.149,3.1491,3.148,3.1488,3.1482,3.1496,3.1489,3.1489,3.1489,0,3.1076,3.1109,3.1153,3.1198,3.1211,3.1232,3.1269,3.1295,3.133,3.1346,3.1371,3.139,3.1419,3.1421,3.1462,3.1452,3.1469,3.1484,3.1485,3.1489,3.149,3.1493,3.1501,3.1503,3.1493,3.1493,3.1493,0,3.1063,3.1119,3.1153,3.117,3.1223,3.1238,3.126,3.1296,3.1317,3.1348,3.1362,3.1396,3.1415,3.144,3.1468,3.1467,3.1506,3.151,3.1519,3.1518,3.1526,3.1525,3.1536,3.1536,3.1536,3.1536,3.1536,0,3.1074,3.1099,3.1148,3.1168,3.1198,3.1231,3.1258,3.1282,3.1314,3.1339,3.1363,3.1385,3.1421,3.1447,3.1469,3.1499,3.1507,3.152,3.1525,3.1518,3.1516,3.1529,3.1529,3.1537,3.1537,3.1537,3.1537,0,3.1065,3.1099,3.1137,3.1185,3.1197,3.1216,3.1257,3.1277,3.1302,3.1333,3.1342,3.138,3.1413,3.1444,3.1486,3.1501,3.1532,3.1538,3.152,3.1523,3.1531,3.153,3.1551,3.1555,3.1552,3.1552,3.1552,0,3.107,3.109,3.1141,3.116,3.1183,3.1213,3.1235,3.1268,3.129,3.1332,3.1347,3.1382,3.1412,3.1462,3.1493,3.1526,3.1534,3.154,3.1539,3.1531,3.1534,3.1533,3.1535,3.1539,3.1539,3.1539,3.1538,0,3.1074,3.109,3.1122,3.116,3.1186,3.1217,3.1248,3.1262,3.1301,3.1323,3.1358,3.1381,3.1426,3.146,3.1497,3.1519,3.1535,3.1538,3.1542,3.1535,3.1523,3.153,3.1519,3.1538,3.1538,3.1538,3.1538,3.1538,3.1073,3.1092,3.1131,3.1166,3.1193,3.1222,3.1244,3.1273,3.1303,3.1343,3.136,3.1395,3.143,3.1482,3.1503,3.153,3.1534,3.1539,3.1541,3.1542,3.154,3.1519,3.1537,3.1537,3.1537,3.1537,3.1537,0,3.1079,3.1106,3.1137,3.1181,3.1208,3.1223,3.1258,3.128,3.1311,3.1343,3.1372,3.1412,3.1445,3.1479,3.1514,3.1529,3.1538,3.1537,3.1536,3.1541,3.1535,3.1528,3.153,3.153,3.153,3.153,3.153,3.153,3.1085,3.112,3.114,3.1188,3.1214,3.125,3.1269,3.1296,3.1322,3.1366,3.1395,3.1417,3.145,3.1488,3.1518,3.1528,3.1539,3.1537,3.1548,3.1541,3.1542,3.1542,3.1536,3.1539,3.1539,3.1552,3.1552,3.1552]}]]